Location: Pl�tzky
(52.0521°N, 11.8020°E)
Time: 16:24:37
(UTC+00:00)

Cosmos 1452 Rocket - Pass Details

Date: 22 November 2019
Orbit: 767 x 775 km, 74.1° (Epoch: 06 December)

Event Time Altitude Azimuth Distance (km) Brightness Sun altitude
Rises 17:29:17 0° 334° (NNW) 3,267 7.0 -20.4°
Reaches altitude 10° 17:31:41 10° 333° (NNW) 2,336 6.2 -20.7°
Maximum altitude 17:37:00 82° 248° (WSW) 790 3.5 -21.6°
Drops below altitude 10° 17:42:17 10° 160° (SSE) 2,319 5.8 -22.4°
Enters shadow 17:43:51 - 160° (SSE) 2,934 6.4 -22.6°
